Weather History for Dubuque, IA

Change the Weather History Date:

Monday, December 3, 2012

  Actual Average Record
Temperature  
Mean Temperature 55 °F 27 °F  
Max Temperature 64 °F 35 °F 64 °F (1951)
Min Temperature 45 °F 20 °F -15 °F (1985)
Degree Days  
Heating Degree Days 10 38  
Month to date heating degree days 49 112  
Since 1 July heating degree days 1600 1612  
Cooling Degree Days 0 0  
Month to date cooling degree days 0 0  
Year to date cooling degree days 907 643  
Growing Degree Days 2 (Base 50)    
Moisture  
Dew Point 51 °F    
Average Humidity 80    
Maximum Humidity 100    
Minimum Humidity 60    
Precipitation  
Precipitation 0.00 in 0.08 in 1.35 in (1990)
Month to date precipitation 0.11 0.23  
Year to date precipitation 21.81 34.68  
Snow  
Snow 0.00 in 0.30 in - ()
Month to date snowfall 0.0 1.0  
Since 1 July snowfall 0.4 3.8  
Snow Depth 0.00 in    
Sea Level Pressure  
Sea Level Pressure 29.81 in    
Wind  
Wind Speed 17 mph (SSW)    
Max Wind Speed 28 mph    
Max Gust Speed 33 mph    
Visibility 6 miles    
Events Fog    
T = Trace of Precipitation, MM = Missing Value Source: NWS Daily Summary

Daily Weather History Graph

Daily Weather History Graph

Search for Another Location

Airport:

Trip Planner

Search our weather history database for the weather conditions in past years. The results will help you decide how hot, cold, wet, or windy it might be!

Date:

Astronomy

Dec. 03, 2012 Rise Set
Actual Time 7:15 AM CST 4:30 PM CST
Civil Twilight 6:43 AM CST 5:01 PM CST
Nautical Twilight 6:08 AM CST 5:37 PM CST
Astronomical Twilight 5:34 AM CST 6:11 PM CST
Moon 9:20 PM CST (12/3) 10:35 AM CST (12/3)
Length of Visible Light 10h 18m
Length of Day
9h 15m
Waning Gibbous, 78% of the Moon is Illuminated
Dec 3
Waning Gibbous
Dec 6
Last Quarter
Dec 13
New
Dec 19
First Quarter
Dec 28
Full

Hourly Weather History & Observations

Time (CST) Temp. Windchill Dew Point Humidity Pressure Visibility Wind Dir Wind Speed Gust Speed Precip Events Conditions
12:53 AM 46.9 °F - 46.9 °F 100% 29.96 in 0.2 mi SSE 13.8 mph - N/A Fog Fog
1:53 AM 46.9 °F - 46.9 °F 100% 29.94 in 0.2 mi SSE 12.7 mph 19.6 mph N/A Fog Fog
2:53 AM 48.0 °F - 48.0 °F 100% 29.91 in 0.2 mi SSE 17.3 mph - N/A Fog Fog
3:53 AM 48.0 °F - 48.0 °F 100% 29.88 in 0.2 mi SSE 18.4 mph - N/A Fog Fog
4:53 AM 48.0 °F - 48.0 °F 100% 29.86 in 0.2 mi SSE 19.6 mph - N/A Fog Fog
5:53 AM 48.9 °F - 48.9 °F 100% 29.85 in 0.2 mi SSE 13.8 mph - N/A Fog Fog
6:53 AM 50.0 °F - 50.0 °F 100% 29.84 in 0.2 mi South 12.7 mph - N/A Fog Fog
7:37 AM 51.8 °F - 51.8 °F 100% 29.81 in 0.2 mi South 15.0 mph - 0.01 in Fog Fog
7:53 AM 53.1 °F - 53.1 °F 100% 29.82 in 0.8 mi South 16.1 mph - 0.01 in   Mist
8:03 AM 53.6 °F - 53.6 °F 100% 29.81 in 1.5 mi South 17.3 mph - N/A   Overcast
8:13 AM 55.4 °F - 55.4 °F 100% 29.80 in 2.0 mi South 18.4 mph - N/A   Overcast
8:27 AM 55.4 °F - 55.4 °F 100% 29.79 in 3.0 mi South 18.4 mph 29.9 mph N/A   Overcast
8:53 AM 55.4 °F - 55.4 °F 100% 29.79 in 3.0 mi South 18.4 mph 27.6 mph N/A   Overcast
9:53 AM 57.9 °F - 57.0 °F 97% 29.78 in 4.0 mi South 20.7 mph 26.5 mph N/A   Overcast
10:33 AM 60.8 °F - 57.2 °F 88% 29.76 in 6.0 mi South 16.1 mph 28.8 mph 0.02 in   Overcast
10:53 AM 60.1 °F - 57.9 °F 93% 29.75 in 6.0 mi South 17.3 mph - 0.02 in   Overcast
11:53 AM 62.1 °F - 57.9 °F 86% 29.73 in 8.0 mi SSW 20.7 mph 27.6 mph N/A   Overcast
12:53 PM 60.8 °F - 57.2 °F 88% 29.71 in 5.0 mi SSW 17.3 mph - N/A   Overcast
1:12 PM 62.6 °F - 57.2 °F 82% 29.69 in 7.0 mi South 18.4 mph - N/A   Overcast
1:53 PM 63.0 °F - 57.9 °F 84% 29.70 in 10.0 mi SSW 20.7 mph - N/A   Overcast
2:53 PM 64.0 °F - 57.9 °F 80% 29.69 in 10.0 mi South 19.6 mph - N/A   Overcast
3:53 PM 64.0 °F - 57.0 °F 78% 29.70 in 10.0 mi SSW 19.6 mph - N/A   Overcast
4:53 PM 63.0 °F - 57.0 °F 81% 29.72 in 10.0 mi SSW 16.1 mph - N/A   Overcast
5:53 PM 62.1 °F - 55.9 °F 80% 29.74 in 10.0 mi WSW 17.3 mph 24.2 mph N/A   Mostly Cloudy
6:13 PM 59.0 °F - 48.2 °F 67% 29.77 in 10.0 mi WNW 20.7 mph 26.5 mph N/A   Mostly Cloudy
6:53 PM 55.9 °F - 46.9 °F 72% 29.80 in 9.0 mi WNW 19.6 mph 31.1 mph N/A   Scattered Clouds
7:53 PM 52.0 °F - 42.1 °F 69% 29.85 in 10.0 mi NW 13.8 mph 23.0 mph N/A   Clear
8:53 PM 50.0 °F - 41.0 °F 71% 29.88 in 10.0 mi NW 13.8 mph - N/A   Clear
9:53 PM 48.0 °F - 37.0 °F 66% 29.92 in 10.0 mi NW 18.4 mph - N/A   Clear
10:53 PM 46.9 °F - 34.0 °F 61% 29.95 in 10.0 mi NNW 15.0 mph - N/A   Clear
11:53 PM 44.6 °F 38.1 °F 33.8 °F 66% 29.96 in 10.0 mi NNW 13.8 mph - N/A   Clear